Time,TemperatureF,DewpointF,PressureIn,WindDirection,WindDirectionDegrees,WindSpeedMPH,WindSpeedGustMPH,Humidity,HourlyPrecipIn,Conditions,Clouds,dailyrainin,SoftwareType,DateUTC
2013-02-15 00:02:00,31.0,22.0,-100.00,SW,230,2.0,5.0,70,-99.99,,,-99.99,,2013-02-15 05:02:00,
2013-02-15 00:12:00,31.0,22.0,-100.00,SW,230,2.0,5.0,70,-99.99,,,-99.99,,2013-02-15 05:12:00,
2013-02-15 00:22:00,31.0,22.0,-100.00,SW,230,2.0,5.0,70,-99.99,,,-99.99,,2013-02-15 05:22:00,
2013-02-15 00:32:00,30.0,22.0,-100.00,SW,220,2.0,3.0,71,-99.99,,,-99.99,,2013-02-15 05:32:00,
2013-02-15 00:42:00,29.0,22.0,-100.00,SSW,210,2.0,3.0,72,-99.99,,,-99.99,,2013-02-15 05:42:00,
2013-02-15 00:52:00,29.0,21.0,-100.00,SW,220,2.0,3.0,72,-99.99,,,-99.99,,2013-02-15 05:52:00,
2013-02-15 01:02:00,29.0,21.0,-100.00,SSW,210,2.0,5.0,73,-99.99,,,-99.99,,2013-02-15 06:02:00,
2013-02-15 01:11:00,28.0,21.0,-100.00,SSW,210,2.0,5.0,74,-99.99,,,-99.99,,2013-02-15 06:11:00,
2013-02-15 01:22:00,29.0,21.0,-100.00,SW,215,2.0,3.0,74,-99.99,,,-99.99,,2013-02-15 06:22:00,
2013-02-15 01:32:00,28.0,21.0,-100.00,SW,215,2.0,3.0,74,-99.99,,,-99.99,,2013-02-15 06:32:00,
2013-02-15 01:42:00,28.0,22.0,-100.00,SSW,195,2.0,3.0,76,-99.99,,,-99.99,,2013-02-15 06:42:00,
2013-02-15 01:52:00,28.0,21.0,-100.00,SSW,200,2.0,3.0,75,-99.99,,,-99.99,,2013-02-15 06:52:00,
2013-02-15 02:01:00,28.0,22.0,-100.00,SW,215,2.0,7.0,77,-99.99,,,-99.99,,2013-02-15 07:01:00,
2013-02-15 02:11:00,28.0,21.0,-100.00,SW,220,3.0,5.0,77,-99.99,,,-99.99,,2013-02-15 07:11:00,
2013-02-15 02:42:00,27.0,22.0,-100.00,SW,225,2.0,5.0,79,-99.99,,,-99.99,,2013-02-15 07:42:00,
2013-02-15 02:52:00,27.0,22.0,-100.00,SW,225,2.0,5.0,79,-99.99,,,-99.99,,2013-02-15 07:52:00,
2013-02-15 03:01:00,28.0,24.0,-100.00,SW,225,3.0,6.0,83,-99.99,,,-99.99,,2013-02-15 08:01:00,
2013-02-15 03:11:00,28.0,23.0,-100.00,SW,225,3.0,7.0,84,-99.99,,,-99.99,,2013-02-15 08:11:00,
2013-02-15 03:21:00,28.0,24.0,-100.00,SW,220,2.0,6.0,84,-99.99,,,-99.99,,2013-02-15 08:21:00,
2013-02-15 03:32:00,27.0,24.0,-100.00,SW,225,3.0,6.0,85,-99.99,,,-99.99,,2013-02-15 08:32:00,
2013-02-15 03:42:00,28.0,24.0,-100.00,SW,225,3.0,8.0,86,-99.99,,,-99.99,,2013-02-15 08:42:00,
2013-02-15 03:52:00,28.0,25.0,-100.00,SW,225,3.0,8.0,88,-99.99,,,-99.99,,2013-02-15 08:52:00,
2013-02-15 04:02:00,28.0,25.0,-100.00,SW,215,3.0,6.0,88,-99.99,,,-99.99,,2013-02-15 09:02:00,
2013-02-15 05:42:00,28.0,27.0,-100.00,SW,220,5.0,8.0,95,-99.99,,,-99.99,,2013-02-15 10:42:00,
2013-02-15 08:32:00,33.0,31.0,-100.00,SSW,210,3.0,10.0,92,-99.99,,,-99.99,,2013-02-15 13:32:00,
2013-02-15 11:32:00,44.0,30.0,-100.00,SW,230,7.0,10.0,58,-99.99,,,-99.99,,2013-02-15 16:32:00,
2013-02-15 14:32:00,49.0,32.0,-100.00,SW,230,5.0,16.0,51,-99.99,,,-99.99,,2013-02-15 19:32:00,
2013-02-15 17:32:00,46.0,31.0,-100.00,SW,215,5.0,13.0,55,-99.99,,,-99.99,,2013-02-15 22:32:00,
2013-02-15 17:42:00,46.0,31.0,-100.00,SW,220,3.0,13.0,57,-99.99,,,-99.99,,2013-02-15 22:42:00,
2013-02-15 20:32:00,39.0,32.0,-100.00,SW,230,2.0,7.0,74,-99.99,,,-99.99,,2013-02-16 01:32:00,
2013-02-15 21:32:00,38.0,32.0,-100.00,WNW,290,5.0,8.0,78,-99.99,,,-99.99,,2013-02-16 02:32:00,